RH
75 76 84 92 93 94 94 92 92 92 91 91 91 91 90 90 91 91 89 88 87 86 86 86 85 84 84 85 86 88 90 76
77 76 79 81 85 94 93 92 92 92 91 93 94 93 92 92 92 91 88 88 90 89 88 87 87 86 87 88 90 91 85 66
75 76 75 76 73 81 91 90 91 92 91 93 98 83 86 85 88 90 91 92 93 92 90 91 92 92 92 93 92 78 62 69
64 74 75 73 54 82 78 76 79 82 78 88 86 84 84 74 80 93 92 94 94 94 94 93 94 80 86 94 90 72 75 84
51 69 74 72 66 76 70 71 73 77 78 81 83 84 84 86 94 94 94 94 89 91 91 88 79 86 83 84 84 84 92 91
47 53 68 72 62 67 64 64 68 71 74 82 89 92 90 87 92 93 91 92 93 90 91 84 82 75 67 74 84 92 95 96
48 57 68 70 74 69 68 67 72 75 85 82 87 90 93 95 93 96 96 96 96 94 83 80 75 71 82 84 88 87 88 91
52 55 69 68 72 71 75 79 89 91 92 92 92 95 95 95 97 96 94 93 93 84 74 75 76 89 92 91 88 89 86 88
59 68 72 73 70 74 76 86 87 88 91 92 93 94 94 95 97 97 94 94 91 80 71 68 83 85 89 89 89 90 92 92
61 62 74 82 85 90 88 88 90 91 93 94 93 92 94 97 97 94 91 90 79 78 78 83 92 93 92 92 89 90 93 92
64 72 78 89 96 97 95 95 94 96 94 94 92 93 94 94 95 94 89 87 81 77 77 78 93 86 85 88 90 94 92 87
72 81 96 97 98 98 98 98 98 96 89 93 88 88 86 93 94 92 88 82 79 79 80 77 89 81 78 88 89 86 91 96
86 97 98 98 98 98 99 99 96 92 83 83 83 81 80 80 83 84 81 80 78 79 81 75 91 89 92 92 90 90 92 85
96 97 97 96 96 94 94 93 92 83 80 84 82 80 78 74 84 83 81 82 80 81 83 85 87 86 88 92 98 96 91 86
97 97 97 96 94 89 89 86 80 83 86 81 80 73 75 80 80 84 88 86 88 87 87 83 89 91 86 86 96 96 93 85
95 96 97 95 89 86 83 78 80 84 86 80 78 75 74 75 78 79 82 83 82 83 79 90 88 87 83 78 84 87 96 97
92 94 94 91 84 78 77 73 77 78 75 77 77 79 74 72 77 78 82 82 79 78 77 79 80 83 82 83 84 91 90 86
89 91 86 80 76 73 76 75 73 73 76 77 76 75 76 73 70 78 77 76 76 79 77 77 80 80 79 80 79 84 88 88
82 78 77 72 70 73 72 70 66 71 74 74 73 73 75 77 76 78 77 74 72 72 76 77 78 82 82 79 75 73 70 73
70 66 65 64 63 64 64 64 64 63 65 62 65 64 65 74 77 76 68 70 72 74 78 80 80 85 81 83 80 76 72 70
Wind_Speed
10 10 10 9 9 9 9 10 10 9 9 9 8 7 7 6 5 5 7 6 5 4 3 3 3 3 4 5 9 13 9 8
10 9 9 8 7 9 9 9 8 8 8 7 7 7 6 5 5 5 5 8 8 6 5 5 5 6 6 8 8 11 9 9
10 10 9 9 9 8 9 10 9 8 7 7 6 4 6 8 9 9 9 7 8 8 8 7 6 9 9 9 9 5 8 3
10 10 10 9 9 11 8 8 7 6 7 8 5 6 5 6 7 9 9 10 9 9 8 8 6 5 4 7 3 8 4 4
12 9 10 10 6 8 6 6 6 6 8 8 7 4 2 1 3 3 4 8 5 7 6 5 6 5 2 3 5 4 4 4
14 12 7 6 5 8 8 7 8 7 8 7 4 2 3 2 1 4 9 10 9 5 4 5 5 6 1 2 6 6 5 4
15 13 9 6 4 4 5 4 4 6 5 5 4 4 5 11 9 7 5 10 17 13 4 4 3 7 9 10 10 9 9 6
15 14 10 6 4 3 3 7 7 8 7 7 10 8 7 7 7 2 5 7 2 15 8 3 6 10 11 10 10 9 9 9
15 13 9 7 3 5 4 9 8 6 6 6 8 8 7 6 6 5 4 3 4 5 6 4 4 9 10 8 7 9 7 8
16 12 9 9 8 9 7 7 6 5 5 4 6 4 3 3 3 3 3 4 4 1 2 1 8 9 7 5 7 7 8 8
17 14 12 11 12 8 7 6 5 4 5 4 3 2 1 2 3 4 4 3 3 3 2 3 7 8 7 5 7 6 6 5
14 11 14 12 9 7 5 5 5 3 4 3 4 3 2 2 3 4 2 1 1 1 4 4 7 6 8 5 5 5 6 5
12 13 11 10 7 5 4 4 4 4 4 4 3 3 2 2 2 3 2 2 2 1 1 3 6 4 5 4 4 4 7 5
10 9 9 8 7 5 4 5 3 4 4 5 4 1 2 2 5 4 5 4 4 3 4 2 3 6 3 3 3 0 2 4
7 9 10 8 9 7 7 4 5 3 3 3 3 4 5 4 6 4 4 3 2 1 2 3 1 3 6 4 3 2 2 2
7 7 9 9 10 9 11 6 6 4 4 4 5 6 5 5 4 3 1 1 2 2 3 3 2 3 3 5 4 6 3 2
7 7 8 8 10 10 8 6 6 6 7 7 6 5 6 6 5 4 4 4 4 3 2 2 3 3 2 3 2 3 4 3
8 9 9 10 9 9 8 7 8 8 6 6 5 5 4 5 5 5 5 3 4 4 2 2 3 4 3 3 1 2 2 3
10 12 12 11 9 7 8 6 6 7 8 6 7 5 5 6 6 5 3 3 3 3 3 3 3 2 3 3 3 3 2 2
13 14 14 13 9 8 6 8 4 4 7 6 6 6 8 10 7 7 5 6 5 3 2 3 4 2 3 3 3 4 4 3
Wind_Direction
139 152 146 139 135 135 141 144 145 145 146 144 136 142 145 147 155 190 172 160 158 164 171 191 229 251 270 284 298 306 308 297
139 153 154 154 152 131 138 142 143 149 154 144 143 152 160 172 181 204 204 171 172 185 194 212 225 249 255 264 276 294 282 284
151 157 164 165 156 148 139 147 153 153 154 157 150 190 177 180 202 195 198 192 191 199 204 217 236 256 254 261 278 275 272 287
161 162 165 172 170 145 167 163 172 179 177 165 200 220 184 216 199 179 198 200 206 213 217 224 233 249 222 239 261 272 308 318
163 162 165 179 163 153 172 171 179 183 188 174 193 206 188 72 134 204 229 223 214 205 206 220 227 235 250 220 264 312 336 346
155 160 157 205 158 161 182 174 185 182 184 168 159 151 179 225 11 350 340 309 261 230 205 195 240 259 155 221 35 30 1 18
149 149 156 194 267 166 179 171 131 121 121 133 159 107 61 62 58 68 46 33 349 299 232 223 191 72 50 53 55 36 33 27
145 150 145 160 246 118 73 85 79 79 82 87 86 92 97 115 129 158 108 84 16 319 349 1 71 75 63 57 59 59 42 38
141 136 134 143 189 89 59 68 85 80 88 93 112 125 151 157 127 141 165 149 204 257 303 313 93 84 75 64 59 67 64 48
134 133 134 103 82 65 72 82 96 106 101 90 85 97 86 6 76 126 180 210 155 258 306 22 78 75 60 46 67 59 53 54
124 131 128 98 89 82 91 101 105 97 99 88 108 98 85 136 92 58 45 13 37 38 340 69 100 96 86 39 56 48 44 51
120 107 103 107 99 103 95 93 78 93 108 133 140 133 116 110 95 130 146 110 158 29 29 26 104 106 98 73 60 51 43 28
99 111 125 122 118 116 102 104 128 126 128 131 134 91 97 91 102 77 356 308 113 96 152 91 97 117 121 97 53 52 78 19
99 114 123 117 125 126 119 134 165 143 106 64 85 132 159 67 65 46 30 22 8 4 329 78 107 187 160 151 148 161 34 78
112 124 127 127 127 124 128 144 112 103 102 129 172 188 72 79 90 85 70 51 18 3 356 15 299 205 224 178 156 196 130 117
112 122 128 139 145 145 161 157 162 131 170 190 165 132 145 132 124 135 160 180 257 281 287 275 268 262 294 226 227 138 164 187
136 144 148 161 178 176 181 170 119 157 184 147 137 152 175 175 165 184 191 207 202 266 163 221 270 289 296 332 301 178 177 116
150 152 167 188 197 176 196 146 172 163 146 158 163 165 178 181 190 191 192 189 165 194 242 300 312 321 336 334 311 272 217 191
161 167 177 188 185 178 191 172 134 142 154 178 167 161 170 176 183 198 188 190 158 203 169 228 205 232 299 297 306 272 272 275
176 177 175 181 168 168 151 159 173 169 174 197 172 177 183 158 179 183 190 165 175 181 227 208 197 180 234 278 305 312 333 303